GW0234 Weather Reports


Display with metric or nautical units.
time (UTC)temp
F
wind
direction
speed
MPH
gust
MPH
rain 1hr
in
rain 24hr
in
rain mn
in
humidity
%
barometer
mb
20260504193058 70 123 7.0 17.0 0.00 0.00 0.00 51 1005.5
20260504191558 70 5 8.0 17.0 0.00 0.00 0.00 51 1005.5
20260504190125 70 12 5.0 15.0 0.00 0.00 0.00 50 1005.7
20260504184559 68 346 8.0 19.0 0.00 0.00 0.00 50 1006.0
20260504183058 70 40 5.0 15.0 0.00 0.00 0.00 49 1006.1
20260504181600 70 15 4.0 13.0 0.00 0.00 0.00 47 1006.1
20260504180155 69 38 5.0 16.0 0.00 0.00 0.00 49 1006.2
20260504174556 69 93 6.0 14.0 0.00 0.00 0.00 49 1006.6
20260504173120 68 22 3.0 11.0 0.00 0.00 0.00 49 1006.7
20260504171558 68 22 8.0 18.0 0.00 0.00 0.00 51 1006.7
20260504140115 60 360 3.0 10.0 0.00 0.00 0.00 56 1008.3
20260504120114 51 15 4.0 9.0 0.00 0.00 0.00 61 1008.5
20260504100105 42 19 0.0 2.0 0.00 0.00 0.00 79 1008.8
20260504081555 42 0 0.0 1.0 0.00 0.00 0.00 78 1009.7
20260504050136 39 0 0.0 1.0 0.00 0.00 0.00 78 1011.2
20260504044559 39 0 0.0 1.0 0.00 0.00 0.00 77 1011.3
20260504043101 39 0 0.0 2.0 0.00 0.00 0.00 76 1011.3
20260504041555 39 0 0.0 1.0 0.00 0.00 0.00 76 1011.2
20260504040105 40 0 0.0 0.0 0.00 0.00 0.00 75 1011.1
20260504034558 40 0 0.0 0.0 0.00 0.00 0.00 73 1011.2
20260504033058 41 0 0.0 0.0 0.00 0.00 0.00 72 1011.2
20260504031629 42 0 0.0 1.0 0.00 0.00 0.00 71 1011.2
20260504030058 43 0 0.0 1.0 0.00 0.00 0.00 70 1011.3
20260504024559 44 0 0.0 1.0 0.00 0.00 0.00 70 1011.4
20260504023055 45 0 0.0 1.0 0.00 0.00 0.00 69 1011.4
20260504021610 46 0 0.0 2.0 0.00 0.00 0.00 68 1011.4
20260504014557 48 0 0.0 1.0 0.00 0.00 0.00 65 1011.4
20260504013102 50 0 0.0 1.0 0.00 0.00 0.00 64 1011.3
20260504011557 51 40 0.0 2.0 0.00 0.00 0.00 58 1011.2
20260504010113 52 0 0.0 3.0 0.00 0.00 0.00 56 1011.2
20260504004558 53 355 0.0 3.0 0.00 0.00 0.00 52 1011.1
20260504003055 54 0 0.0 5.0 0.00 0.00 0.00 50 1011.1
20260504001610 54 360 1.0 5.0 0.00 0.00 0.00 50 1011.2
20260504000059 54 321 1.0 8.0 0.00 0.00 0.00 47 1011.1
20260503234554 55 11 1.0 4.0 0.00 0.00 0.00 47 1011.1
20260503233055 55 103 0.0 5.0 0.00 0.00 0.00 45 1011.0
20260503231600 56 355 3.0 11.0 0.00 0.00 0.00 43 1010.9
20260503230059 57 9 4.0 15.0 0.00 0.00 0.00 42 1011.1
20260503224558 58 159 5.0 14.0 0.00 0.00 0.00 40 1011.1
20260503223057 58 17 2.0 5.0 0.00 0.00 0.00 43 1011.2
20260503221556 57 24 2.0 12.0 0.00 0.00 0.00 44 1011.2
20260503214559 59 135 5.0 14.0 0.00 0.00 0.00 40 1011.1
20260503213133 58 74 2.0 12.0 0.00 0.00 0.00 42 1011.0
20260503211621 59 300 6.0 19.0 0.00 0.00 0.00 40 1010.9
20260503210100 59 244 3.0 10.0 0.00 0.00 0.00 41 1011.1
20260503204619 58 157 3.0 16.0 0.00 0.00 0.00 41 1011.2
20260503203109 57 334 3.0 11.0 0.00 0.00 0.00 41 1011.3
20260503201559 57 355 3.0 10.0 0.00 0.00 0.00 45 1011.4
20260503200059 58 19 3.0 16.0 0.00 0.00 0.00 45 1011.7
20260503194557 57 360 2.0 9.0 0.00 0.00 0.00 47 1011.9